Location: Unspecified
(48.8656°N, 0.0000°E)
Time: 01:53:23
(UTC+00:00)

SR - Pass Details

Date: 26 June 2019
Orbit: 578 x 878 km, 66.7° (Epoch: 16 August)

Event Time Altitude Azimuth Distance (km) Brightness Sun altitude
Rises 10:07:31 0° 327° (NNW) 2,975 ? 55.9°
Reaches altitude 10° 10:09:53 10° 336° (NNW) 2,105 ? 56.2°
Maximum altitude 10:14:22 39° 45° (NE) 1,072 ? 56.7°
Drops below altitude 10° 10:19:12 10° 114° (ESE) 2,280 ? 57.3°
Sets 10:21:51 0° 122° (ESE) 3,254 ? 57.7°
